Starlink 32318

operational
NORAD ID: 61864 Int'l Des: 2024-202 Owner: SPXS Country: US Constellation: starlink
LEOCIRCULAR

About Starlink 32318

Description loading...

Live Position

Loading 3D Globe...

Upcoming Passes

Altitude History

Altitude vs Time

uPlot chart will show altitude changes over time

Two-Line Element Set

1 61864U 24202V 25258.38535211 -.00000678 00000-0 -15123-4 0 9994
2 61864 43.0023 148.3085 0000833 287.6621 72.4140 15.27569430 48523
Epoch: Sep 15, 2025 • Age: 24 hours

Current Status

Altitude 482.9 km
Velocity 7.63 km/s
Sub-Earth Point -1.78°S, 13.67°E
Launch Date Nov 7, 2024
Age 0.8 years
Type internet

Technical Details

Classification Payload
Mass 730.00 kg
Dry Mass 700.00 kg
Total Mass 730.00 kg
Length 0.30 m
Diameter 4.10 m
Span 29.00 m
Shape Box + pan
Manufacturer SPXS
Bus Type Starlink V2M
Phase Status In Orbit
Owner/State SPXS/US

Large Constellations

Loading constellations...